Simultaneous Nadir Overpasses (SNOs) Predictions

Prediction of SNOs between NOAA-19 and TERRA Satellite Orbit:

Table of predicted SNOs for the next 14.0 days since TLE Epoch: 1/13/2024
Index Date (NOAA-19) Time (NOAA-19) Lat,Lon (NOAA-19) SZA (NOAA-19 ) Date (TERRA) Time (TERRA) Lat,Lon (TERRA) SZA (TERRA ) Distance(km) Time Diff (sec)
1 01/14/2024 04:55:11 -79.81, -56.68 78.53 01/14/2024 04:56:25 -79.52, -55.48 78.75 40.25 74
2 01/14/2024 05:45:36 80.47, 119.70 102.58 01/14/2024 05:45:20 80.47, 119.74 102.58 0.68 16
3 01/16/2024 08:44:51 80.43, 74.37 102.12 01/16/2024 08:45:41 80.42, 74.22 102.11 3.10 50
4 01/16/2024 09:35:53 -80.49,-117.42 77.78 01/16/2024 09:35:01 -80.48,-117.57 77.81 2.86 52
5 01/18/2024 12:35:09 -80.44,-163.14 78.31 01/18/2024 12:35:22 -80.43,-163.20 78.32 1.42 13
6 01/20/2024 16:25:16 80.43, -40.76 101.22 01/20/2024 16:25:02 80.43, -40.63 101.22 2.45 14
7 01/22/2024 19:24:30 80.40, -85.91 100.69 01/22/2024 19:25:21 80.40, -85.97 100.70 1.13 51
8 01/22/2024 20:15:33 -80.44, 81.90 79.25 01/22/2024 20:14:42 -80.44, 82.04 79.25 2.65 51
9 01/24/2024 23:14:47 -80.41, 36.64 79.82 01/24/2024 23:15:01 -80.40, 36.59 79.82 1.00 14



Historial Predications of SNOs between NOAA-19 and TERRA
